Location: Haliburton Scout Reserve
(45.0900°N, 78.3200°W)
Time: 03:35:04
(UTC-04:00)

PCSat - Pass Details

Date: 01 June 2022
Orbit: 784 x 795 km, 67.1° (Epoch: 24 June)

Event Time Altitude Azimuth Distance (km) Brightness Sun altitude
Rises 23:51:31 0° 333° (NNW) 3,305 14.4 -20.3°
Reaches altitude 10° 23:54:21 10° 346° (NNW) 2,372 13.2 -20.5°
Maximum altitude 23:58:52 26° 43° (NE) 1,532 11.3 -20.7°
Enters shadow 00:03:00 12° 96° (E) 2,252 11.7 -21.0°
